No particular awareness of the weather is required.    There are no Weather-warnings


Meteo18 Weather Cam more information Meteo18 Weather Cam


Thunder radar more information blitzortung!


Rain radar more information rain snow radar


Visit our other weather sites:

Template documentation
and downloads

And another site



Weather Underground History page Text

Daily Summary for May 7, 2017 Units:  English    Metric   Both
« Previous Day
Next Day »
Daily Weekly Monthly Yearly Custom
  High: Low: Average:
Temperature: TemperatureC °F 9.8 °F 12.1 °F
Dew Point: DewpointC °F 8.7 °F 9.6 °F
Humidity: Humidity % 66 % 85 %
Wind Speed: WindSpeedKMH mph 0.0 mph 6.9 mph
Wind Gust: WindSpeedGustKMH mph - -
Wind:- - West
Pressure: PressurehPa in 1015.8 in -
Precipitation: 0.8 in    
Historical Graphs
 
 
Tabular Data for May 7, 2017
Time Temperature Dew Point Pressure Wind Wind Speed Wind Gust Humidity Rainfall Rate (Hourly)
TemperatureC °F DewpointC °F PressurehPa in Calm     Humidity % HourlyPrecipMM in
00:02 12.2 °F 10.4 °F 1015.8 in SW 6.4 mph 32.2 mph 89 % 0.0 in
00:07 12.2 °F 10.4 °F 1015.8 in WSW 12.9 mph 25.7 mph 89 % 0.0 in
00:12 12.2 °F 10.4 °F 1015.8 in SW 8.0 mph 25.7 mph 89 % 0.0 in
00:17 12.2 °F 10.6 °F 1015.8 in SW 9.7 mph 22.5 mph 90 % 0.0 in
00:22 12.1 °F 10.5 °F 1015.8 in WSW 11.3 mph 22.5 mph 90 % 0.0 in
00:32 12.1 °F 10.5 °F 1016.1 in West 9.7 mph 25.7 mph 90 % 0.0 in
00:37 12.1 °F 10.5 °F 1016.1 in WSW 17.7 mph 30.6 mph 90 % 0.0 in
00:42 12.1 °F 10.5 °F 1016.1 in West 20.9 mph 30.6 mph 90 % 0.0 in
00:47 12.0 °F 10.4 °F 1016.1 in SW 12.9 mph 30.6 mph 90 % 0.0 in
00:52 11.9 °F 10.3 °F 1016.1 in West 20.9 mph 25.7 mph 90 % 0.0 in
00:57 11.9 °F 10.3 °F 1016.1 in SW 8.0 mph 27.4 mph 90 % 0.0 in
01:02 11.8 °F 10.2 °F 1016.5 in WSW 8.0 mph 27.4 mph 90 % 0.0 in
01:07 11.8 °F 10.2 °F 1016.5 in SW 17.7 mph 27.4 mph 90 % 0.0 in
01:12 11.7 °F 10.1 °F 1016.5 in WSW 9.7 mph 33.8 mph 90 % 0.0 in
01:17 11.7 °F 10.1 °F 1016.5 in West 19.3 mph 33.8 mph 90 % 0.0 in
01:22 11.7 °F 10.1 °F 1016.5 in WSW 19.3 mph 27.4 mph 90 % 0.0 in
01:32 11.6 °F 10.0 °F 1016.5 in West 17.7 mph 27.4 mph 90 % 0.0 in
01:37 11.6 °F 10.0 °F 1016.5 in WSW 11.3 mph 27.4 mph 90 % 0.0 in
01:42 11.6 °F 10.0 °F 1016.5 in WSW 25.7 mph 27.4 mph 90 % 0.0 in
01:47 11.6 °F 10.0 °F 1016.5 in SW 14.5 mph 27.4 mph 90 % 0.0 in
01:52 11.6 °F 10.0 °F 1016.5 in West 17.7 mph 27.4 mph 90 % 0.0 in
01:57 11.5 °F 9.9 °F 1016.5 in WSW 11.3 mph 27.4 mph 90 % 0.0 in
02:02 11.5 °F 9.9 °F 1016.5 in WSW 17.7 mph 22.5 mph 90 % 0.0 in
02:07 11.4 °F 9.8 °F 1016.5 in West 8.0 mph 20.9 mph 90 % 0.0 in
02:12 11.4 °F 9.8 °F 1016.5 in SW 8.0 mph 20.9 mph 90 % 0.0 in
02:17 11.4 °F 9.8 °F 1016.5 in WSW 14.5 mph 20.9 mph 90 % 0.0 in
02:22 11.4 °F 9.8 °F 1016.5 in WSW 12.9 mph 22.5 mph 90 % 0.0 in
02:27 11.4 °F 9.8 °F 1016.5 in WSW 17.7 mph 22.5 mph 90 % 0.0 in
02:32 11.3 °F 9.7 °F 1016.5 in SW 12.9 mph 22.5 mph 90 % 0.0 in
02:37 11.3 °F 9.7 °F 1016.5 in SW 14.5 mph 25.7 mph 90 % 0.0 in
02:42 11.3 °F 9.7 °F 1016.5 in SSW 19.3 mph 25.7 mph 90 % 0.0 in
02:47 11.3 °F 9.9 °F 1016.8 in West 6.4 mph 25.7 mph 91 % 0.0 in
02:52 11.2 °F 9.8 °F 1016.8 in WSW 14.5 mph 25.7 mph 91 % 0.0 in
02:57 11.2 °F 9.8 °F 1016.8 in WSW 20.9 mph 25.7 mph 91 % 0.0 in
03:02 11.2 °F 9.8 °F 1016.8 in West 16.1 mph 22.5 mph 91 % 0.0 in
03:07 11.2 °F 9.8 °F 1016.8 in WSW 6.4 mph 24.1 mph 91 % 0.0 in
03:12 11.2 °F 9.8 °F 1016.8 in WSW 17.7 mph 24.1 mph 91 % 0.0 in
03:17 11.2 °F 9.8 °F 1016.8 in West 12.9 mph 24.1 mph 91 % 0.0 in
03:22 11.1 °F 9.7 °F 1016.8 in SW 8.0 mph 27.4 mph 91 % 0.0 in
03:27 11.1 °F 9.7 °F 1016.8 in West 12.9 mph 27.4 mph 91 % 0.0 in
03:32 11.1 °F 9.7 °F 1016.8 in SW 17.7 mph 24.1 mph 91 % 0.0 in
03:42 11.1 °F 9.7 °F 1016.8 in West 9.7 mph 27.4 mph 91 % 0.0 in
03:47 11.1 °F 9.7 °F 1016.8 in WSW 12.9 mph 27.4 mph 91 % 0.0 in
03:52 11.1 °F 9.7 °F 1016.8 in West 16.1 mph 20.9 mph 91 % 0.0 in
03:57 11.1 °F 9.7 °F 1016.8 in WSW 19.3 mph 20.9 mph 91 % 0.0 in
04:02 11.1 °F 9.7 °F 1016.8 in SW 11.3 mph 25.7 mph 91 % 0.0 in
04:07 11.1 °F 9.7 °F 1016.8 in WNW 12.9 mph 27.4 mph 91 % 0.0 in
04:12 11.1 °F 9.7 °F 1016.8 in West 11.3 mph 27.4 mph 91 % 0.0 in
04:17 11.1 °F 9.7 °F 1016.8 in WSW 16.1 mph 27.4 mph 91 % 0.0 in
04:22 11.1 °F 9.7 °F 1017.2 in WSW 16.1 mph 27.4 mph 91 % 0.0 in
04:27 11.1 °F 9.7 °F 1017.2 in West 9.7 mph 27.4 mph 91 % 0.0 in
04:32 11.1 °F 9.7 °F 1017.2 in West 11.3 mph 22.5 mph 91 % 0.0 in
04:37 11.1 °F 9.7 °F 1017.2 in WSW 9.7 mph 22.5 mph 91 % 0.0 in
04:42 11.1 °F 9.7 °F 1017.2 in West 9.7 mph 25.7 mph 91 % 0.0 in
04:47 11.1 °F 9.7 °F 1017.2 in West 6.4 mph 25.7 mph 91 % 0.0 in
04:52 11.1 °F 9.7 °F 1017.2 in West 8.0 mph 20.9 mph 91 % 0.0 in
04:57 11.1 °F 9.7 °F 1017.2 in West 9.7 mph 20.9 mph 91 % 0.0 in
05:02 11.1 °F 9.7 °F 1017.2 in West 9.7 mph 17.7 mph 91 % 0.0 in
05:07 11.1 °F 9.7 °F 1017.2 in WNW 8.0 mph 17.7 mph 91 % 0.0 in
05:12 11.0 °F 9.6 °F 1017.5 in WNW 4.8 mph 17.7 mph 91 % 0.0 in
05:17 11.0 °F 9.6 °F 1017.5 in West 6.4 mph 17.7 mph 91 % 0.0 in
05:22 10.9 °F 9.7 °F 1017.5 in WSW 12.9 mph 16.1 mph 92 % 0.0 in
05:32 10.9 °F 9.5 °F 1017.2 in WSW 9.7 mph 19.3 mph 91 % 0.0 in
05:37 10.9 °F 9.5 °F 1017.5 in WSW 9.7 mph 19.3 mph 91 % 0.0 in
05:42 10.9 °F 9.5 °F 1017.5 in WSW 16.1 mph 19.3 mph 91 % 0.0 in
05:47 10.9 °F 9.5 °F 1017.5 in WSW 9.7 mph 19.3 mph 91 % 0.0 in
05:52 10.9 °F 9.5 °F 1017.5 in WSW 9.7 mph 19.3 mph 91 % 0.0 in
05:57 10.9 °F 9.5 °F 1017.5 in West 6.4 mph 17.7 mph 91 % 0.0 in
06:02 10.9 °F 9.5 °F 1017.5 in WSW 9.7 mph 19.3 mph 91 % 0.0 in
06:12 11.0 °F 9.6 °F 1017.5 in WSW 6.4 mph 19.3 mph 91 % 0.0 in
06:17 10.9 °F 9.5 °F 1017.5 in West 4.8 mph 19.3 mph 91 % 0.0 in
06:22 10.9 °F 9.5 °F 1017.8 in WSW 9.7 mph 17.7 mph 91 % 0.0 in
06:27 11.0 °F 9.6 °F 1017.8 in SW 16.1 mph 16.1 mph 91 % 0.0 in
06:32 11.0 °F 9.4 °F 1017.8 in WSW 12.9 mph 12.9 mph 90 % 0.0 in
06:37 11.0 °F 9.4 °F 1017.8 in WNW 6.4 mph 16.1 mph 90 % 0.0 in
06:42 11.1 °F 9.5 °F 1017.8 in West 6.4 mph 16.1 mph 90 % 0.0 in
06:47 11.1 °F 9.5 °F 1017.8 in West 4.8 mph 16.1 mph 90 % 0.0 in
06:52 11.1 °F 9.5 °F 1017.8 in West 4.8 mph 16.1 mph 90 % 0.0 in
06:57 11.1 °F 9.5 °F 1017.8 in West 12.9 mph 16.1 mph 90 % 0.0 in
07:02 11.1 °F 9.5 °F 1017.8 in WNW 16.1 mph 16.1 mph 90 % 0.0 in
07:12 11.2 °F 9.5 °F 1017.8 in WNW 3.2 mph 17.7 mph 89 % 0.0 in
07:17 11.2 °F 9.5 °F 1017.8 in West 9.7 mph 20.9 mph 89 % 0.0 in
07:22 11.2 °F 9.5 °F 1018.2 in West 3.2 mph 20.9 mph 89 % 0.0 in
07:32 11.2 °F 9.5 °F 1018.2 in WSW 6.4 mph 11.3 mph 89 % 0.0 in
07:42 11.3 °F 9.6 °F 1018.5 in West 4.8 mph 12.9 mph 89 % 0.0 in
07:47 11.3 °F 9.4 °F 1018.5 in WSW 6.4 mph 12.9 mph 88 % 0.0 in
07:52 11.3 °F 9.4 °F 1018.5 in West 8.0 mph 14.5 mph 88 % 0.0 in
08:02 11.3 °F 9.4 °F 1018.5 in West 11.3 mph 14.5 mph 88 % 0.0 in
08:07 11.4 °F 9.5 °F 1018.5 in NW 8.0 mph 16.1 mph 88 % 0.0 in
08:12 11.4 °F 9.5 °F 1018.5 in West 12.9 mph 16.1 mph 88 % 0.0 in
08:17 11.5 °F 9.6 °F 1018.5 in WNW 4.8 mph 19.3 mph 88 % 0.0 in
08:22 11.6 °F 9.7 °F 1018.8 in WNW 6.4 mph 19.3 mph 88 % 0.0 in
08:32 11.7 °F 9.8 °F 1018.8 in WSW 8.0 mph 17.7 mph 88 % 0.0 in
08:37 11.6 °F 9.7 °F 1018.8 in WNW 12.9 mph 17.7 mph 88 % 0.0 in
08:42 11.7 °F 9.6 °F 1018.8 in WNW 8.0 mph 19.3 mph 87 % 0.0 in
08:47 11.7 °F 9.8 °F 1018.8 in NW 6.4 mph 19.3 mph 88 % 0.0 in
08:52 11.7 °F 9.6 °F 1019.2 in NNW 4.8 mph 19.3 mph 87 % 0.0 in
08:57 11.7 °F 9.8 °F 1019.2 in WNW 3.2 mph 19.3 mph 88 % 0.0 in
09:02 11.7 °F 9.6 °F 1019.2 in West 4.8 mph 19.3 mph 87 % 0.0 in
09:07 11.8 °F 9.7 °F 1019.2 in West 6.4 mph 24.1 mph 87 % 0.0 in
09:12 11.8 °F 9.7 °F 1019.2 in WNW 6.4 mph 24.1 mph 87 % 0.0 in
09:17 11.9 °F 9.8 °F 1019.2 in West 6.4 mph 19.3 mph 87 % 0.0 in
09:22 12.1 °F 10.0 °F 1019.5 in West 3.2 mph 19.3 mph 87 % 0.0 in
09:27 11.9 °F 9.6 °F 1019.5 in West 11.3 mph 16.1 mph 86 % 0.0 in
09:32 11.9 °F 9.8 °F 1019.5 in WNW 6.4 mph 16.1 mph 87 % 0.0 in
09:37 11.9 °F 9.8 °F 1019.5 in WNW 6.4 mph 16.1 mph 87 % 0.0 in
09:42 11.9 °F 9.8 °F 1019.5 in Calm   12.9 mph 87 % 0.0 in
09:47 11.8 °F 9.5 °F 1019.9 in WNW 9.7 mph 14.5 mph 86 % 0.0 in
09:52 11.8 °F 9.5 °F 1019.9 in WNW 9.7 mph 20.9 mph 86 % 0.0 in
09:57 11.7 °F 9.4 °F 1019.9 in West 8.0 mph 20.9 mph 86 % 0.0 in
10:02 11.7 °F 9.6 °F 1019.9 in West 8.0 mph 20.9 mph 87 % 0.0 in
10:12 11.7 °F 9.6 °F 1019.9 in West 1.6 mph 20.9 mph 87 % 0.0 in
10:17 11.6 °F 9.3 °F 1019.9 in NNW 3.2 mph 20.9 mph 86 % 0.0 in
10:22 11.6 °F 9.5 °F 1020.2 in NW 4.8 mph 20.9 mph 87 % 0.0 in
10:27 11.6 °F 9.5 °F 1020.2 in SE 4.8 mph 20.9 mph 87 % 0.0 in
10:32 11.5 °F 9.2 °F 1020.2 in WNW 6.4 mph 20.9 mph 86 % 0.0 in
10:42 11.6 °F 9.3 °F 1020.2 in WNW 11.3 mph 20.9 mph 86 % 0.0 in
10:47 11.6 °F 9.5 °F 1020.2 in WNW 3.2 mph 20.9 mph 87 % 0.0 in
10:52 11.7 °F 9.4 °F 1020.2 in West 12.9 mph 17.7 mph 86 % 0.0 in
10:57 11.7 °F 9.4 °F 1020.5 in NW 9.7 mph 17.7 mph 86 % 0.0 in
11:02 11.8 °F 9.5 °F 1020.5 in WNW 1.6 mph 17.7 mph 86 % 0.0 in
11:07 11.8 °F 9.5 °F 1020.5 in WNW 4.8 mph 16.1 mph 86 % 0.0 in
11:12 11.8 °F 9.5 °F 1020.5 in WNW 9.7 mph 16.1 mph 86 % 0.0 in
11:17 11.8 °F 9.5 °F 1020.5 in West 6.4 mph 19.3 mph 86 % 0.0 in
11:22 11.8 °F 9.5 °F 1020.5 in WNW 9.7 mph 19.3 mph 86 % 0.0 in
11:27 12.0 °F 9.6 °F 1020.5 in Calm   19.3 mph 85 % 0.0 in
11:32 12.2 °F 9.6 °F 1020.5 in West 3.2 mph 16.1 mph 84 % 0.0 in
11:37 12.4 °F 9.8 °F 1020.5 in WNW 11.3 mph 16.1 mph 84 % 0.0 in
11:42 12.6 °F 10.1 °F 1020.5 in Calm   16.1 mph 85 % 0.0 in
11:47 12.7 °F 10.1 °F 1020.5 in WNW 3.2 mph 14.5 mph 84 % 0.0 in
11:52 12.9 °F 10.1 °F 1020.9 in NW 4.8 mph 14.5 mph 83 % 0.0 in
11:57 13.1 °F 10.1 °F 1020.9 in Calm   14.5 mph 82 % 0.0 in
12:02 13.1 °F 9.9 °F 1020.9 in NNW 8.0 mph 11.3 mph 81 % 0.0 in
12:07 12.8 °F 9.2 °F 1020.9 in WNW 9.7 mph 14.5 mph 79 % 0.0 in
12:12 12.8 °F 9.2 °F 1020.9 in NNW 6.4 mph 14.5 mph 79 % 0.0 in
12:17 12.9 °F 9.3 °F 1020.9 in WNW 3.2 mph 12.9 mph 79 % 0.0 in
12:22 13.1 °F 9.5 °F 1020.9 in NW 8.0 mph 12.9 mph 79 % 0.0 in
12:27 13.1 °F 9.5 °F 1020.9 in NE 6.4 mph 12.9 mph 79 % 0.0 in
12:32 13.1 °F 9.7 °F 1020.9 in WNW 3.2 mph 12.9 mph 80 % 0.0 in
12:42 13.2 °F 9.3 °F 1020.9 in West 8.0 mph 14.5 mph 77 % 0.0 in
12:47 13.3 °F 9.5 °F 1020.9 in NW 3.2 mph 14.5 mph 78 % 0.0 in
12:52 13.4 °F 9.4 °F 1021.2 in NNW 1.6 mph 16.1 mph 77 % 0.0 in
12:57 13.5 °F 9.4 °F 1021.2 in NNW 14.5 mph 16.1 mph 76 % 0.0 in
13:02 13.5 °F 9.4 °F 1021.2 in WNW 6.4 mph 19.3 mph 76 % 0.0 in
13:07 13.4 °F 9.1 °F 1021.2 in NW 4.8 mph 19.3 mph 75 % 0.0 in
13:12 13.4 °F 9.3 °F 1021.2 in NNW 12.9 mph 19.3 mph 76 % 0.0 in
13:17 13.6 °F 9.4 °F 1021.2 in North 3.2 mph 16.1 mph 76 % 0.0 in
13:22 13.7 °F 9.3 °F 1021.2 in NW 6.4 mph 12.9 mph 75 % 0.0 in
13:27 13.9 °F 9.3 °F 1021.2 in NW 4.8 mph 17.7 mph 74 % 0.0 in
13:32 13.8 °F 9.0 °F 1021.2 in WNW 8.0 mph 17.7 mph 73 % 0.0 in
13:37 13.8 °F 9.2 °F 1021.2 in North 12.9 mph 20.9 mph 74 % 0.0 in
13:42 14.1 °F 9.5 °F 1021.2 in WNW 12.9 mph 20.9 mph 74 % 0.0 in
13:47 14.0 °F 9.0 °F 1021.2 in WNW 9.7 mph 22.5 mph 72 % 0.0 in
13:52 13.9 °F 8.9 °F 1021.2 in NW 12.9 mph 22.5 mph 72 % 0.0 in
13:57 14.1 °F 9.1 °F 1021.2 in NW 8.0 mph 22.5 mph 72 % 0.0 in
14:02 14.4 °F 9.4 °F 1021.2 in NW 6.4 mph 19.3 mph 72 % 0.0 in
14:12 14.1 °F 9.5 °F 1021.2 in West 3.2 mph 17.7 mph 74 % 0.0 in
14:17 14.1 °F 9.3 °F 1021.2 in WNW 9.7 mph 17.7 mph 73 % 0.0 in
14:22 14.1 °F 9.3 °F 1021.2 in NW 9.7 mph 16.1 mph 73 % 0.0 in
14:27 14.3 °F 9.3 °F 1021.2 in WNW 11.3 mph 16.1 mph 72 % 0.0 in
14:32 14.2 °F 9.0 °F 1021.2 in WNW 20.9 mph 20.9 mph 71 % 0.0 in
14:42 13.9 °F 8.9 °F 1021.2 in NW 8.0 mph 20.9 mph 72 % 0.0 in
14:52 14.0 °F 9.4 °F 1021.2 in NW 3.2 mph 20.9 mph 74 % 0.0 in
14:57 13.9 °F 9.1 °F 1021.2 in WNW 4.8 mph 16.1 mph 73 % 0.0 in
15:02 13.8 °F 9.2 °F 1021.2 in WNW 11.3 mph 16.1 mph 74 % 0.0 in
15:12 14.0 °F 9.4 °F 1021.2 in NNW 4.8 mph 17.7 mph 74 % 0.0 in
15:17 14.4 °F 9.6 °F 1021.2 in NW 9.7 mph 17.7 mph 73 % 0.0 in
15:22 14.7 °F 9.5 °F 1021.2 in WNW 14.5 mph 16.1 mph 71 % 0.0 in
15:27 14.9 °F 9.9 °F 1021.2 in NNE 9.7 mph 16.1 mph 72 % 0.0 in
15:32 15.0 °F 9.1 °F 1021.2 in WSW 16.1 mph 17.7 mph 68 % 0.0 in
15:37 15.0 °F 8.7 °F 1021.2 in NW 3.2 mph 19.3 mph 66 % 0.0 in
15:47 15.1 °F 8.8 °F 1020.9 in WNW 17.7 mph 19.3 mph 66 % 0.0 in
15:57 15.3 °F 9.2 °F 1020.9 in North 4.8 mph 17.7 mph 67 % 0.0 in
16:02 15.1 °F 9.5 °F 1020.9 in WNW 3.2 mph 17.7 mph 69 % 0.0 in
16:12 14.4 °F 8.8 °F 1020.9 in WNW 8.0 mph 16.1 mph 69 % 0.0 in
16:17 14.3 °F 8.9 °F 1020.9 in NW 4.8 mph 16.1 mph 70 % 0.0 in
16:22 14.2 °F 9.0 °F 1020.9 in West 1.6 mph 16.1 mph 71 % 0.0 in
16:27 14.1 °F 8.9 °F 1020.9 in Calm   16.1 mph 71 % 0.0 in
16:32 14.0 °F 9.0 °F 1020.9 in NW 8.0 mph 12.9 mph 72 % 0.0 in
16:37 14.0 °F 9.2 °F 1020.9 in NNW 3.2 mph 9.7 mph 73 % 0.0 in
16:42 13.9 °F 9.3 °F 1020.9 in NW 4.8 mph 11.3 mph 74 % 0.0 in
16:47 14.0 °F 9.4 °F 1020.9 in West 3.2 mph 11.3 mph 74 % 0.0 in
16:52 14.0 °F 9.2 °F 1020.9 in NNE 3.2 mph 11.3 mph 73 % 0.0 in
16:57 14.0 °F 9.4 °F 1020.9 in NW 8.0 mph 9.7 mph 74 % 0.0 in
17:02 14.0 °F 9.4 °F 1020.9 in WNW 3.2 mph 12.9 mph 74 % 0.0 in
17:07 13.9 °F 9.3 °F 1020.9 in WNW 1.6 mph 12.9 mph 74 % 0.0 in
17:12 13.9 °F 9.5 °F 1020.9 in NNW 9.7 mph 12.9 mph 75 % 0.0 in
17:17 13.8 °F 9.2 °F 1020.9 in WNW 4.8 mph 11.3 mph 74 % 0.0 in
17:22 13.7 °F 9.3 °F 1020.9 in NNW 6.4 mph 11.3 mph 75 % 0.0 in
17:32 13.6 °F 9.4 °F 1020.9 in NW 1.6 mph 11.3 mph 76 % 0.0 in
17:37 13.5 °F 9.5 °F 1020.9 in NNW 6.4 mph 11.3 mph 77 % 0.0 in
17:42 13.4 °F 9.4 °F 1020.9 in WNW 8.0 mph 9.7 mph 77 % 0.0 in
17:47 13.4 °F 9.4 °F 1020.9 in NW 3.2 mph 9.7 mph 77 % 0.0 in
17:52 13.4 °F 9.4 °F 1020.9 in WNW 4.8 mph 9.7 mph 77 % 0.0 in
17:57 13.4 °F 9.4 °F 1020.9 in West 4.8 mph 9.7 mph 77 % 0.0 in
18:02 13.4 °F 9.4 °F 1020.9 in West 1.6 mph 8.0 mph 77 % 0.0 in
18:07 13.4 °F 9.4 °F 1020.9 in WNW 3.2 mph 9.7 mph 77 % 0.0 in
18:12 13.4 °F 9.4 °F 1020.9 in WNW 1.6 mph 9.7 mph 77 % 0.0 in
18:17 13.4 °F 9.6 °F 1020.9 in Calm   6.4 mph 78 % 0.0 in
18:22 13.4 °F 9.6 °F 1020.9 in West 1.6 mph 6.4 mph 78 % 0.0 in
18:27 13.4 °F 9.4 °F 1020.9 in WNW 4.8 mph 9.7 mph 77 % 0.0 in
18:37 13.4 °F 9.6 °F 1020.9 in Calm   9.7 mph 78 % 0.0 in
18:42 13.3 °F 9.5 °F 1020.9 in West 1.6 mph 4.8 mph 78 % 0.0 in
18:47 13.3 °F 9.5 °F 1020.9 in WNW 1.6 mph 4.8 mph 78 % 0.0 in
18:52 13.2 °F 9.4 °F 1020.9 in WSW 1.6 mph 4.8 mph 78 % 0.0 in
18:57 13.2 °F 9.6 °F 1021.2 in WNW 1.6 mph 4.8 mph 79 % 0.0 in
19:02 13.1 °F 9.7 °F 1021.2 in SW 3.2 mph 4.8 mph 80 % 0.0 in
19:07 13.0 °F 9.6 °F 1021.2 in Calm   6.4 mph 80 % 0.0 in
19:12 12.9 °F 9.7 °F 1021.2 in NW 1.6 mph 6.4 mph 81 % 0.0 in
19:17 12.9 °F 9.7 °F 1021.2 in Calm   6.4 mph 81 % 0.0 in
19:27 12.7 °F 9.5 °F 1021.2 in NW 6.4 mph 19.3 mph 81 % 0.0 in
19:32 12.6 °F 9.6 °F 1021.2 in WNW 1.6 mph 19.3 mph 82 % 0.0 in
19:37 12.4 °F 9.8 °F 1021.2 in NE 4.8 mph 19.3 mph 84 % 0.0 in
19:42 12.2 °F 10.1 °F 1021.2 in NE 1.6 mph 14.5 mph 87 % 0.0 in
19:52 12.0 °F 10.2 °F 1021.2 in Calm   9.7 mph 89 % 0.0 in
19:57 12.0 °F 10.2 °F 1021.2 in Calm   4.8 mph 89 % 0.0 in
20:02 11.9 °F 10.1 °F 1021.2 in Calm   1.6 mph 89 % 0.0 in
20:07 11.9 °F 10.1 °F 1021.2 in Calm   1.6 mph 89 % 0.0 in
20:12 11.9 °F 10.1 °F 1021.2 in NNE 1.6 mph 3.2 mph 89 % 0.0 in
20:17 11.9 °F 10.1 °F 1021.2 in Calm   3.2 mph 89 % 0.0 in
20:22 11.9 °F 10.1 °F 1021.2 in ENE 1.6 mph 3.2 mph 89 % 0.0 in
20:27 12.0 °F 10.2 °F 1021.2 in Calm   3.2 mph 89 % 0.0 in
20:32 12.0 °F 10.2 °F 1021.2 in Calm   1.6 mph 89 % 0.0 in
20:42 11.9 °F 10.3 °F 1021.2 in Calm     90 % 0.0 in
20:47 11.8 °F 10.2 °F 1021.6 in Calm     90 % 0.0 in
20:52 11.8 °F 10.2 °F 1021.6 in Calm   1.6 mph 90 % 0.0 in
20:57 11.8 °F 10.2 °F 1021.6 in Calm   1.6 mph 90 % 0.0 in
21:02 11.8 °F 10.2 °F 1021.6 in Calm     90 % 0.0 in
21:07 11.7 °F 10.3 °F 1021.6 in Calm     91 % 0.0 in
21:12 11.7 °F 10.3 °F 1021.6 in Calm     91 % 0.0 in
21:17 11.7 °F 10.3 °F 1021.6 in Calm   1.6 mph 91 % 0.0 in
21:22 11.6 °F 10.2 °F 1021.6 in Calm   1.6 mph 91 % 0.0 in
21:32 11.6 °F 10.3 °F 1021.6 in Calm   1.6 mph 92 % 0.3 in
21:37 11.6 °F 10.3 °F 1021.6 in WNW 3.2 mph 3.2 mph 92 % 0.3 in
21:42 11.4 °F 10.1 °F 1021.6 in Calm   6.4 mph 92 % 0.5 in
21:47 11.4 °F 10.1 °F 1021.6 in WNW 1.6 mph 6.4 mph 92 % 0.5 in
21:57 11.4 °F 10.1 °F 1021.9 in Calm   3.2 mph 92 % 0.8 in
22:02 11.3 °F 10.0 °F 1021.9 in Calm   3.2 mph 92 % 0.8 in
22:07 11.3 °F 10.2 °F 1021.9 in Calm   1.6 mph 93 % 0.8 in
22:12 11.3 °F 10.2 °F 1021.9 in Calm   1.6 mph 93 % 0.8 in
22:22 11.2 °F 10.1 °F 1021.9 in Calm     93 % 0.8 in
22:27 11.1 °F 10.0 °F 1021.9 in Calm   1.6 mph 93 % 0.5 in
22:37 11.1 °F 10.2 °F 1021.9 in Calm   1.6 mph 94 % 0.5 in
22:42 11.0 °F 10.1 °F 1021.9 in Calm   1.6 mph 94 % 0.5 in
22:47 10.9 °F 10.0 °F 1021.9 in Calm   1.6 mph 94 % 0.3 in
22:52 10.9 °F 10.0 °F 1021.9 in Calm   3.2 mph 94 % 0.3 in
22:57 10.8 °F 9.9 °F 1021.9 in Calm   3.2 mph 94 % 0.0 in
23:02 10.7 °F 9.8 °F 1021.9 in Calm   3.2 mph 94 % 0.0 in
23:07 10.7 °F 9.8 °F 1021.9 in Calm     94 % 0.0 in
23:12 10.7 °F 9.8 °F 1021.9 in Calm   1.6 mph 94 % 0.0 in
23:17 10.6 °F 9.7 °F 1021.9 in Calm   1.6 mph 94 % 0.0 in
23:22 10.4 °F 9.5 °F 1021.9 in Calm   1.6 mph 94 % 0.0 in
23:32 10.3 °F 9.4 °F 1021.9 in Calm   1.6 mph 94 % 0.0 in
23:37 10.2 °F 9.3 °F 1021.9 in Calm     94 % 0.0 in
23:42 10.2 °F 9.4 °F 1021.9 in Calm   1.6 mph 95 % 0.0 in
23:47 10.1 °F 9.3 °F 1021.9 in Calm   1.6 mph 95 % 0.0 in
23:52 10.0 °F 9.1 °F 1021.9 in Calm   1.6 mph 94 % 0.0 in
23:57 9.8 °F 9.0 °F 1021.9 in Calm     95 % 0.0 in
Meteo18
Compliments of Weather Underground - 4 mb

Script developed by  Jim McMurry - jmcmurry@mwt.net Adapted for the template by  Wim van der Kuil - Leuven-Template.eu

You find our weather info also at:

European Weather Network

Weather Underground

Equipment we use:

Weather-station
Davis Vue

Weather-program
Meteobridge

Weather-server
Raspberry PI 2 B+

Provider
1 and 1

Davis Vue

Meteobridge

Raspberry PI 2 B+

1 and 1